GLOBALSTAR M095 [+]

Last updated on July 6, 2021, 3:36 p.m. UTC

1 39077U 13005F   21187.01145754 -.00000098  00000-0  32871-4 0  9994
2 39077  51.9817  24.8962 0000306  81.2338 278.8563 12.62263718388000
UTC
Height (km)
Latitude
Longitude
Inclination
Orbital Period
UTC large
Height (km)
Speed (km/s)
/
Latitude / Longitude
Inclination (degrees)
Orbital Period (minutes)
Azimuth
Elevation
Range (km)
Doppler Factor
iOS Compass Heading
iOS Angle